Wind_Speed
18 17 17 17 17 17 16 15 15 14 13 12 11 11 11 11 11 11 11 11 11 11 11 11 11 11 11 11 11 11 11 11 11 11 10 10 11 10 10 11 11 11 11 11 10 10 10 10 10 9 10 11 11 11 12 11 10 9 8 7 6 6 6 6 6 7 7 5 5 6 6 5 4 3 3 2 3 3 4 3 3 3 5 5 4
19 18 17 17 17 17 16 16 16 15 14 13 12 11 11 11 11 11 11 11 11 11 10 10 10 10 10 10 10 10 10 11 11 11 11 11 11 11 11 11 12 11 11 11 11 11 11 11 10 10 10 10 11 11 12 11 10 9 8 7 7 6 5 6 6 6 7 6 5 4 4 4 3 3 2 1 1 3 3 1 1 3 4 5 5
20 19 18 18 18 18 17 17 16 16 15 15 14 12 12 11 11 11 11 11 11 11 10 10 10 10 10 10 10 10 10 10 10 10 10 11 11 11 11 11 12 12 11 12 12 11 11 11 11 11 10 10 10 11 11 11 10 9 9 8 8 7 6 6 7 7 7 6 4 3 3 3 3 3 3 3 2 3 3 3 3 5 6 6 7
20 21 20 19 19 19 18 17 16 16 15 15 15 14 13 12 12 11 11 10 10 10 10 10 10 10 10 10 10 10 11 10 10 10 10 10 10 10 10 11 11 12 13 13 12 11 11 11 11 11 10 10 10 10 11 10 9 9 9 8 8 7 6 7 7 7 7 6 4 4 4 3 3 4 3 3 3 4 4 5 6 6 6 7 7
20 21 21 21 21 21 20 19 18 16 16 15 15 15 14 13 13 13 12 11 11 10 9 9 10 10 10 10 11 11 11 11 11 11 11 10 10 10 10 10 11 11 12 12 11 11 10 11 11 11 11 10 10 10 10 9 8 8 8 8 8 8 8 8 8 8 8 6 5 4 4 4 4 4 4 4 4 5 6 7 6 5 6 8 8
19 20 22 22 23 22 21 21 20 18 16 16 15 15 15 15 15 14 13 12 12 11 10 10 10 10 11 11 11 12 12 12 11 11 11 11 11 10 10 11 11 11 11 11 11 11 11 11 12 13 12 11 10 10 9 9 8 8 7 7 8 8 8 9 9 8 8 6 5 5 6 6 6 6 7 7 6 6 7 7 6 6 7 8 8
19 20 21 21 21 21 20 20 19 18 17 17 16 16 16 15 15 14 13 13 13 13 13 12 12 12 12 11 11 12 12 12 12 12 11 11 11 11 11 11 11 11 11 12 12 13 13 14 14 13 13 12 11 10 9 9 9 8 8 8 9 9 9 9 8 7 7 6 6 6 7 7 7 8 8 9 9 9 8 6 6 6 7 7 8
19 20 20 20 19 19 19 19 18 18 17 18 17 16 15 14 13 13 13 13 13 13 13 13 14 14 13 12 12 12 12 12 13 13 13 13 12 12 12 12 11 11 12 13 14 14 15 14 13 12 12 12 11 10 10 10 10 10 9 9 9 10 10 9 8 7 7 7 7 7 7 8 8 8 8 8 9 10 9 7 7 7 7 7 10
19 19 19 19 18 17 17 18 19 17 17 16 16 15 14 13 13 13 13 12 13 13 13 13 13 14 14 13 13 13 13 13 13 14 14 14 13 13 13 13 14 13 13 14 14 14 14 13 12 12 12 12 12 11 11 11 11 10 10 10 10 10 10 10 9 8 7 7 7 7 7 8 8 8 8 9 9 10 10 9 8 8 7 7 10
20 20 20 18 16 16 17 19 19 18 17 16 15 14 13 13 13 13 13 13 12 12 12 12 12 12 13 13 14 14 14 14 14 14 14 15 15 15 16 16 17 16 15 15 15 14 13 14 13 12 11 13 13 12 12 12 11 11 11 11 11 11 11 10 9 9 8 7 7 7 8 8 9 8 9 10 11 11 11 11 10 10 9 8 9
20 22 23 22 20 19 21 21 20 18 18 17 16 15 14 14 14 14 14 14 14 13 13 13 12 12 12 13 14 15 14 14 14 15 15 16 16 17 19 19 19 16 15 15 15 14 15 15 14 13 12 12 13 13 14 13 11 11 12 12 12 12 11 11 11 10 9 9 9 9 9 9 9 10 10 10 11 12 12 13 12 12 11 10 10
20 22 24 25 25 25 24 22 21 20 19 18 17 16 15 15 15 16 15 15 15 15 15 15 15 15 15 14 14 14 14 14 16 17 16 16 17 19 19 19 18 17 17 16 15 15 16 15 15 14 13 12 13 14 15 13 12 12 12 13 13 13 13 13 12 11 11 10 10 10 11 10 11 11 11 12 13 14 14 15 15 14 13 12 13
23 23 24 25 25 26 25 24 24 24 23 21 19 17 17 16 17 17 17 17 17 17 17 17 17 17 17 16 17 16 15 15 17 18 17 17 18 19 18 17 18 18 18 17 17 16 16 16 16 16 14 13 14 14 14 13 13 14 14 13 13 13 14 14 13 13 12 12 11 13 14 13 13 13 14 14 15 16 16 16 15 15 14 15 16
26 25 25 26 26 27 26 24 25 25 24 24 22 21 21 21 21 20 20 21 21 21 21 21 20 20 19 19 19 19 18 17 18 19 18 18 18 19 18 18 18 18 17 17 17 17 16 16 17 16 15 14 14 14 14 14 14 14 14 14 14 14 15 15 15 14 14 14 14 15 16 16 16 16 16 17 17 17 17 16 15 15 16 17 18
27 24 23 24 26 27 24 22 22 22 23 23 23 23 23 24 24 23 24 25 25 24 25 25 24 24 23 23 23 22 21 20 20 20 21 21 20 20 19 18 18 18 17 17 18 17 17 17 17 16 15 15 15 15 15 15 15 15 16 16 16 17 17 17 17 16 16 16 17 17 18 18 18 18 18 19 19 19 17 16 16 16 17 17 17
20 19 20 22 24 26 24 22 22 23 23 23 24 26 26 25 25 24 24 25 26 26 26 26 27 27 26 26 26 26 26 25 24 23 23 23 23 22 21 20 19 19 18 18 18 18 19 19 18 18 17 17 16 17 16 16 17 17 18 19 19 20 19 19 18 18 18 18 19 19 19 20 20 20 20 21 20 19 18 17 17 17 17 17 17
15 15 18 21 23 25 25 26 26 25 23 23 25 26 26 25 26 26 25 26 26 27 28 28 28 28 28 28 28 28 29 29 27 26 25 25 25 24 23 22 21 20 20 19 19 19 20 20 21 20 20 20 19 18 18 17 17 18 19 20 21 21 21 21 20 19 19 20 21 21 22 22 22 22 22 21 20 19 18 18 18 18 18 18 17
14 14 14 15 19 21 23 26 27 24 21 22 22 20 19 18 20 23 25 25 27 29 30 31 30 29 30 31 32 32 31 30 29 28 27 27 27 26 25 24 23 23 22 21 21 21 21 21 22 22 22 22 22 21 20 19 18 18 19 20 21 22 23 23 22 22 21 21 22 22 22 22 22 21 21 20 19 19 19 19 19 19 19 19 17
14 13 13 15 18 21 25 29 27 20 17 18 18 16 16 16 17 19 21 23 25 28 30 30 27 25 27 29 31 32 33 32 31 30 29 30 30 30 29 28 27 27 25 24 23 22 22 22 23 24 24 23 22 21 21 20 20 20 20 20 21 22 22 23 23 23 23 22 22 21 21 21 20 20 20 19 19 20 20 20 20 20 20 19 18
14 15 16 18 21 24 27 27 22 17 15 16 16 16 17 18 18 18 19 21 24 27 26 25 22 20 22 25 27 29 30 31 31 31 31 32 33 33 33 31 30 29 29 28 25 23 23 23 24 25 25 24 22 21 21 20 20 21 21 21 21 22 22 23 23 23 23 23 22 21 21 20 20 20 21 20 20 20 21 21 20 20 21 20 18
16 18 19 21 23 23 22 21 18 16 16 17 17 17 18 17 17 18 19 20 23 24 23 21 20 19 20 21 22 23 25 29 31 31 33 33 34 35 36 36 34 33 32 32 31 29 27 26 25 24 24 24 23 21 20 20 20 20 21 21 21 22 22 23 23 23 23 23 22 22 21 21 20 21 21 21 20 20 20 20 20 20 21 20 18
14 16 17 19 19 19 18 17 17 17 17 17 17 17 17 16 16 17 17 18 19 19 19 20 20 19 19 20 19 18 20 25 28 30 32 33 32 33 34 35 36 36 35 34 34 34 32 29 26 24 22 22 23 22 21 20 20 20 21 21 22 22 23 23 23 23 23 22 22 22 21 21 22 23 23 22 22 21 20 21 21 21 20 19 17
9 11 12 13 14 14 14 14 14 14 14 14 15 15 15 16 16 16 16 16 16 16 17 18 19 20 20 20 19 16 16 19 21 24 27 27 27 28 31 32 34 35 35 34 34 35 34 31 28 26 24 22 22 22 21 20 19 19 19 20 20 21 22 22 23 22 22 21 21 21 21 23 24 25 25 24 23 22 21 21 21 19 18 18 18
7 8 8 9 10 10 11 11 11 12 12 12 13 14 15 16 16 16 15 15 15 15 15 15 17 18 19 19 19 17 16 17 19 21 22 21 21 23 26 30 33 34 34 32 32 33 34 31 29 29 29 28 27 25 23 21 21 21 21 21 21 22 22 23 23 22 22 21 21 21 22 25 25 25 24 23 22 22 21 20 18 16 17 18 19
6 6 7 8 9 10 11 12 12 12 12 11 11 12 13 14 14 14 15 15 15 15 15 15 15 17 17 18 18 18 18 19 20 21 20 19 19 19 20 24 29 31 31 30 28 29 30 28 28 30 30 32 34 34 31 30 28 28 29 28 27 26 25 24 23 22 21 21 22 23 25 26 25 22 21 22 21 20 19 18 17 18 19 20 21
4 5 6 6 6 8 9 9 9 10 10 10 10 10 11 11 11 11 12 12 13 14 15 15 16 16 17 18 18 19 19 20 21 21 20 20 20 19 19 21 24 25 27 26 24 25 25 25 26 28 28 30 33 34 34 36 36 35 35 34 32 30 28 28 28 27 27 28 29 29 29 27 25 22 21 22 22 20 20 20 20 20 21 21 22
3 3 4 3 3 3 3 4 5 6 7 8 8 8 8 8 8 8 8 8 9 10 12 13 14 15 15 16 17 18 18 19 19 19 19 20 21 20 20 22 23 24 26 24 21 21 22 22 22 23 24 26 27 26 28 34 37 38 38 37 34 32 32 33 34 33 34 35 36 34 32 28 25 23 21 20 21 21 21 22 22 22 22 22 23
3 3 3 3 3 4 4 4 5 6 7 7 7 6 6 7 6 6 6 6 6 6 8 9 11 12 12 13 14 14 15 16 16 17 17 18 21 22 22 23 22 22 23 22 20 20 22 22 22 22 22 24 24 23 26 31 34 36 36 34 33 33 34 34 34 34 34 34 34 32 30 27 25 23 21 21 21 22 23 23 23 24 24 24 25
5 5 4 3 3 4 5 6 6 7 8 8 8 7 7 6 6 6 6 6 5 5 5 6 7 8 9 9 10 10 10 11 12 13 14 15 17 20 23 24 23 21 20 19 18 19 20 21 21 21 22 22 23 24 26 28 29 29 29 29 30 31 31 32 31 31 30 29 28 26 25 23 23 23 22 23 23 24 24 25 25 26 27 27 27
6 6 5 4 4 5 6 6 7 8 9 9 9 9 9 9 8 8 8 8 8 7 7 7 7 8 8 8 8 8 8 8 8 9 10 11 13 16 19 22 22 22 21 20 19 19 20 20 20 21 21 22 22 23 24 24 23 23 23 23 25 26 27 28 28 27 27 25 23 23 22 21 22 22 23 24 24 25 26 26 27 28 28 29 30
7 7 7 6 6 6 6 7 8 9 9 10 10 11 11 11 11 11 11 10 10 10 10 9 9 10 10 10 10 10 9 9 9 9 9 10 10 11 14 16 18 19 19 19 18 18 18 18 18 20 20 20 20 21 21 20 20 20 19 19 20 21 22 23 24 23 23 22 21 21 21 20 21 22 23 24 25 26 27 28 29 30 30 31 32
9 9 9 8 8 8 8 8 8 9 9 9 9 10 11 12 13 13 13 13 13 13 13 13 13 13 13 13 13 12 12 12 12 12 12 12 12 11 12 12 13 14 14 14 15 15 15 14 14 15 15 15 15 15 16 16 17 17 17 17 17 17 18 18 19 19 20 20 20 20 20 21 22 23 24 26 27 28 29 29 30 31 32 33 33
13 13 12 12 11 11 10 10 10 10 10 9 9 10 11 12 12 13 13 13 14 14 15 15 16 16 16 16 16 16 16 16 16 16 16 16 15 15 14 14 14 14 14 14 14 15 16 15 15 15 15 15 15 15 15 16 17 17 18 18 18 19 19 19 20 20 21 21 22 22 22 23 24 26 27 28 29 29 30 30 31 32 33 33 33
16 16 15 15 15 15 14 14 14 13 13 12 12 12 13 13 12 13 13 13 14 14 14 15 16 17 17 18 18 19 19 19 19 20 20 20 19 19 18 18 17 17 17 17 17 18 18 18 18 18 18 18 18 18 19 19 20 20 20 20 21 21 22 22 23 23 24 24 25 25 26 27 27 28 29 29 30 31 31 32 33 33 33 33 33
18 18 18 17 17 17 17 17 17 17 17 16 16 16 16 16 15 15 15 15 16 17 16 17 17 17 17 18 19 20 20 21 21 22 23 23 23 23 22 21 21 20 20 20 20 21 21 21 21 22 22 22 22 22 22 23 23 23 24 24 24 24 25 25 26 26 27 27 27 27 28 28 29 30 30 31 31 32 33 34 34 34 34 33 33
20 20 19 18 19 19 19 19 19 20 20 20 20 20 19 19 19 19 19 19 19 19 19 19 18 19 19 19 19 20 20 21 22 22 23 24 25 26 26 25 24 23 23 23 23 23 23 24 24 24 24 24 25 25 25 25 26 26 26 26 26 26 27 28 28 28 28 28 28 28 28 29 30 31 31 32 33 34 34 35 34 34 34 34 34
22 21 20 20 21 21 20 20 20 21 21 21 22 22 22 22 22 22 22 22 22 22 22 21 20 21 21 21 21 21 21 22 22 22 23 24 24 25 26 26 26 26 26 25 25 25 25 25 26 26 26 26 27 27 27 28 28 28 28 28 28 29 29 30 30 30 29 28 28 28 29 30 31 32 33 34 34 34 34 34 34 34 34 34 35
22 22 22 22 22 22 22 22 22 22 22 22 22 23 24 24 24 24 24 24 24 24 24 23 23 23 23 22 22 22 22 23 23 23 24 24 24 24 25 25 26 26 26 26 26 25 25 26 26 26 27 27 27 27 27 28 28 28 29 29 30 30 30 30 30 29 29 29 29 30 31 31 32 33 34 35 35 34 34 34 34 35 35 35 35
23 23 23 23 24 24 24 23 23 24 24 24 24 24 25 25 26 26 26 25 25 26 26 25 25 24 24 24 24 24 24 24 23 23 24 24 25 25 24 24 24 25 25 25 25 25 25 25 25 26 26 26 26 27 27 26 26 26 27 28 29 30 30 29 29 28 29 29 30 31 31 32 32 33 34 34 34 34 34 34 35 35 35 35 35
26 26 25 25 25 24 24 25 25 25 25 25 25 25 25 25 25 26 27 27 27 27 27 27 27 26 26 25 25 24 24 24 24 24 24 24 24 24 25 25 25 24 25 25 25 25 25 26 26 26 26 27 27 27 27 26 26 26 27 28 29 30 30 30 29 29 28 29 29 30 31 32 32 33 34 33 33 34 34 34 34 35 35 35 35
28 27 27 27 26 26 25 26 27 26 26 26 25 25 25 25 26 27 28 29 29 29 29 29 29 28 28 27 27 26 26 26 26 26 25 25 25 25 26 26 26 26 25 25 25 26 26 27 27 28 28 28 28 28 28 28 28 28 29 29 30 30 31 31 30 30 29 29 29 30 31 32 32 33 33 33 33 34 34 34 34 34 34 34 34
28 28 28 29 29 28 27 27 27 28 27 27 27 26 26 27 28 29 30 30 30 30 30 30 30 29 29 28 27 28 28 28 28 28 27 26 26 26 27 27 28 28 27 27 27 27 27 28 28 29 29 29 29 29 29 29 29 29 29 29 30 31 31 31 30 30 29 29 29 30 31 32 32 32 32 32 32 33 33 34 34 34 34 34 35
29 28 28 30 31 30 28 28 29 29 29 29 29 28 28 29 30 31 32 32 31 31 31 30 30 30 29 29 28 28 29 30 31 31 30 29 28 28 28 29 29 29 30 30 29 30 30 30 30 29 29 30 30 30 30 30 30 30 30 31 31 31 31 31 30 30 30 30 30 31 32 32 32 32 31 32 32 32 33 33 34 34 35 35 36
31 29 28 30 31 31 31 32 31 31 31 31 31 31 31 32 32 32 32 32 31 31 31 30 30 29 29 29 29 29 30 30 32 33 33 32 31 30 30 30 31 31 31 31 31 31 32 32 32 32 31 31 31 31 32 32 33 32 32 32 32 33 33 33 33 33 32 32 33 33 33 34 34 33 33 34 34 34 35 35 36 36 37 37 38
32 31 30 30 29 30 32 33 34 33 33 33 34 35 35 34 33 33 32 30 30 29 28 28 28 28 28 28 28 28 29 30 31 33 33 33 32 32 32 32 33 33 33 32 32 32 32 33 33 34 34 33 33 32 33 33 34 34 33 33 33 33 34 35 35 35 35 35 36 36 36 36 36 36 36 36 37 37 37 37 38 38 38 38 37
30 31 31 30 30 30 32 33 33 35 36 37 38 38 38 36 34 33 32 30 29 28 28 29 30 30 30 31 31 30 29 29 30 31 32 32 32 31 31 31 32 33 34 34 34 34 34 34 34 35 35 34 34 34 34 34 34 34 34 34 34 34 35 35 36 36 36 36 36 37 37 37 37 37 37 37 37 38 38 38 38 38 37 36 36
30 30 30 30 30 31 33 35 36 37 37 39 40 40 38 35 33 33 32 31 31 31 31 31 31 32 32 32 32 32 31 30 31 31 32 33 32 32 31 31 31 32 33 33 34 34 35 36 36 36 36 35 34 35 35 36 35 35 34 34 34 34 35 35 36 36 36 36 36 36 36 36 37 37 37 37 37 37 37 37 36 36 35 35 34
31 30 30 30 29 30 34 38 39 38 37 38 38 36 32 29 29 31 32 32 31 31 30 30 30 31 31 31 31 30 30 29 30 31 32 33 34 34 34 33 33 33 33 33 33 33 35 36 37 37 36 35 35 35 36 37 36 36 35 34 34 34 34 35 35 35 35 35 35 35 35 35 35 36 36 36 36 35 35 34 34 34 33 33 33
31 31 31 31 31 31 32 35 37 36 33 31 29 28 27 27 28 29 29 28 27 27 27 27 27 27 28 28 29 29 29 29 29 30 31 32 33 34 35 35 35 34 33 32 31 33 35 36 37 37 36 35 34 35 36 36 36 36 35 34 34 35 35 35 35 35 35 35 35 35 34 34 34 34 34 34 34 34 33 32 32 32 32 32 33
30 29 29 30 31 29 29 32 37 38 34 28 25 24 25 25 25 25 24 24 25 25 26 26 25 24 24 25 27 29 30 30 30 29 29 29 31 32 33 34 34 34 32 30 29 31 33 35 36 36 35 34 33 33 35 35 35 35 34 34 34 35 35 35 34 34 34 34 34 34 34 34 34 33 33 32 32 31 31 30 30 31 31 32 33
28 28 27 28 28 28 30 33 37 37 33 28 25 24 24 24 24 24 24 23 22 23 23 23 22 21 22 25 27 29 29 29 29 28 28 28 29 31 32 33 33 33 32 30 29 30 31 33 33 33 33 32 32 33 33 33 33 33 34 34 34 34 34 34 34 34 33 33 33 33 32 32 32 31 31 30 30 29 29 30 30 30 31 32 32
Wind_Direction
202 202 202 201 201 201 200 196 193 189 184 182 181 184 189 190 189 189 191 197 201 203 205 205 203 208 213 216 218 220 222 225 226 226 225 223 223 224 221 221 225 226 226 230 232 229 226 228 233 239 244 250 254 258 260 260 260 264 270 272 272 274 279 279 278 286 292 289 288 294 300 305 314 317 312 325 343 348 358 11 5 350 345 344 339
203 203 201 201 202 202 202 201 197 193 189 188 188 188 191 193 192 192 193 196 201 202 202 204 205 206 209 214 216 217 220 223 225 224 223 223 224 225 223 222 225 227 227 229 231 228 224 225 227 230 234 240 246 253 259 260 256 255 259 265 274 282 287 288 285 283 285 284 286 292 289 285 286 278 265 258 300 316 322 323 286 294 313 321 315
204 205 205 204 204 203 203 204 201 198 195 195 196 195 193 195 196 196 198 199 201 204 203 204 206 206 207 212 215 216 218 220 221 222 222 223 225 226 226 225 225 225 224 225 229 229 226 225 227 229 233 236 240 245 252 256 254 251 252 258 268 275 279 281 278 271 268 270 277 283 274 268 263 251 237 225 247 283 297 293 287 299 314 316 308
208 208 208 208 209 208 207 206 205 203 201 200 202 202 198 198 201 201 201 202 203 206 206 206 207 208 206 206 211 215 217 218 218 221 223 224 225 224 224 226 226 224 223 225 228 228 225 224 228 232 236 240 243 246 250 253 251 246 244 246 252 256 258 260 259 256 257 260 262 264 264 262 251 251 262 272 284 304 316 308 304 304 302 298 296
213 212 213 211 211 211 209 206 205 205 204 204 204 205 203 202 207 210 206 206 207 208 210 210 209 211 209 206 207 213 219 220 219 219 221 224 225 222 220 223 226 224 224 226 229 229 226 226 228 231 234 240 245 249 252 252 249 244 242 242 243 242 244 247 247 248 251 254 258 264 272 276 271 282 298 290 289 312 316 304 290 271 273 285 289
214 213 216 216 214 213 211 208 203 200 203 207 206 207 208 206 206 210 210 211 212 211 214 214 212 214 214 209 208 212 217 219 221 220 220 222 223 220 220 223 226 225 224 226 227 228 228 228 229 229 231 235 238 238 237 236 239 241 239 240 241 239 243 248 248 247 252 259 272 283 289 291 293 303 306 296 298 311 305 290 268 250 260 276 284
215 213 217 219 219 219 221 217 208 199 200 206 209 209 211 211 209 208 211 215 216 216 216 216 216 219 220 215 213 217 217 217 221 223 223 223 222 220 220 223 225 225 225 226 226 226 226 227 229 231 233 236 238 235 228 224 228 231 227 228 232 235 241 247 249 251 260 270 280 287 292 295 299 306 310 312 315 313 299 276 260 263 274 280 283
217 215 216 219 222 222 224 222 215 208 205 206 211 213 212 215 217 216 218 223 228 229 226 222 222 225 227 224 220 222 222 221 224 226 225 223 222 221 220 220 222 225 227 228 227 226 227 229 231 235 238 239 238 234 230 225 225 226 224 224 228 232 238 242 245 251 261 272 281 288 294 299 304 307 311 313 309 305 298 281 266 268 274 285 296
214 217 214 215 220 219 218 221 219 217 216 212 213 216 215 216 219 220 223 228 234 238 239 237 236 236 238 237 232 229 225 223 225 227 228 227 225 224 223 222 222 222 225 229 230 230 231 231 230 234 241 243 240 235 234 232 229 226 227 228 229 234 239 241 245 254 264 275 283 289 292 294 298 299 300 297 291 290 290 285 279 275 268 280 300
203 212 211 210 216 217 219 223 221 218 219 219 218 219 222 224 223 222 223 225 228 232 235 239 242 245 248 250 251 247 240 235 230 228 228 229 229 228 228 228 229 226 226 229 230 229 230 232 232 232 238 243 243 241 241 240 235 231 231 234 237 240 243 247 254 261 268 274 278 280 280 282 283 282 281 282 281 283 284 283 283 283 280 280 288
204 206 208 208 209 216 224 226 221 218 220 223 223 222 227 233 234 232 232 232 234 234 235 236 237 239 243 249 255 257 257 255 247 239 234 231 231 230 229 232 234 233 233 236 233 228 228 231 232 231 231 235 240 243 246 248 247 243 240 241 245 247 249 253 258 260 265 270 274 275 275 276 278 277 275 274 277 282 284 285 284 284 285 282 275
222 216 217 216 211 212 218 222 219 218 223 227 227 226 230 236 239 241 243 244 245 244 244 244 242 239 239 243 246 248 254 259 258 254 249 242 239 236 234 236 238 236 235 238 240 235 231 231 232 231 229 230 233 239 243 247 251 251 247 246 249 251 253 255 259 263 267 270 275 280 282 283 283 281 278 277 279 282 284 284 286 286 288 288 282
235 231 230 229 222 215 213 216 217 216 219 224 226 227 232 237 242 246 250 254 256 256 255 253 251 248 247 247 243 240 243 249 252 255 254 250 248 246 244 243 244 243 240 240 242 240 238 237 235 234 232 230 231 236 241 244 247 248 248 249 252 253 254 255 258 263 270 275 282 287 288 288 287 285 283 282 281 282 281 281 284 287 290 292 289
230 232 232 229 228 225 219 220 224 223 223 227 229 231 235 239 242 247 251 255 259 262 262 261 259 257 256 253 247 242 240 239 242 248 252 252 251 251 250 247 246 248 248 245 242 241 243 245 242 240 240 239 237 237 239 241 243 244 245 245 247 249 252 255 260 266 274 280 284 285 286 287 288 286 286 285 282 281 280 281 285 291 295 296 293
220 221 225 223 227 234 233 233 238 240 238 239 239 240 242 242 242 243 248 252 256 260 262 262 262 260 259 256 252 249 246 242 241 245 250 251 250 250 250 249 248 249 251 250 248 245 246 246 245 244 245 243 241 240 238 238 240 242 244 245 249 253 256 260 266 272 277 280 280 281 282 284 286 286 285 285 283 282 283 283 287 294 297 296 296
222 213 217 217 225 238 244 246 248 248 246 247 248 246 244 243 243 243 245 249 253 257 259 260 260 260 260 258 255 253 252 249 245 244 246 247 248 249 250 250 250 250 249 249 250 250 249 246 245 246 245 243 243 244 243 243 243 244 248 251 255 258 260 263 267 271 273 274 275 276 278 281 283 284 284 284 284 285 284 283 288 296 296 294 296
224 210 211 216 225 237 244 247 248 250 256 264 264 257 250 243 241 242 244 247 251 254 255 255 255 256 258 258 256 253 251 248 245 242 243 244 245 247 249 248 248 250 249 248 249 251 251 248 247 248 247 246 248 249 248 248 248 247 249 253 258 260 261 262 263 264 266 268 271 274 278 281 282 282 282 284 285 285 283 282 289 294 291 288 293
220 211 210 220 230 239 246 250 249 249 256 265 266 262 256 247 240 240 243 247 249 251 251 251 251 253 257 258 256 253 249 246 243 241 242 244 244 244 246 246 246 249 252 251 250 250 249 247 248 249 248 248 249 250 252 252 253 252 253 256 260 262 262 262 262 263 266 269 272 276 279 280 280 280 282 283 284 283 282 283 288 290 288 287 291
232 227 222 227 235 241 247 253 252 247 247 253 254 255 256 253 247 245 245 246 248 249 250 252 253 254 256 256 255 252 247 244 242 241 243 245 246 246 246 245 245 246 248 249 248 248 248 247 248 249 249 249 248 248 251 254 255 256 258 260 262 263 264 265 266 268 270 271 273 275 277 277 278 281 283 283 283 282 281 282 285 286 288 289 291
237 236 230 230 234 238 244 249 252 251 249 251 253 253 252 251 251 252 251 252 253 254 255 258 258 255 254 255 255 252 247 243 243 244 245 246 249 250 249 246 244 242 242 244 245 245 245 245 247 248 249 250 249 248 249 251 253 255 257 260 263 264 266 267 268 270 271 272 274 274 274 276 280 283 284 284 282 281 280 281 282 284 287 288 287
231 235 235 235 237 241 245 249 254 259 258 257 258 258 256 255 256 258 259 260 261 261 262 261 258 253 251 252 253 250 246 243 244 246 247 248 251 253 251 249 246 242 240 242 244 245 245 245 246 249 250 250 249 247 246 247 249 253 255 258 260 262 264 265 266 267 269 270 271 271 271 276 281 284 285 284 281 279 278 279 280 282 283 282 280
230 239 243 246 248 249 251 252 254 256 256 257 258 258 258 257 257 258 259 261 263 264 263 261 258 254 250 250 249 245 241 239 240 243 247 249 253 255 253 250 249 246 243 245 249 252 252 250 247 247 249 250 249 247 245 246 248 252 255 257 258 259 261 264 265 266 267 267 267 268 273 278 281 281 281 280 278 277 276 278 280 280 278 275 272
230 237 242 248 251 250 250 251 252 251 251 252 252 252 252 252 252 253 255 258 261 263 261 259 258 255 252 253 255 249 241 238 238 242 247 251 254 255 253 251 249 246 244 246 251 254 254 252 247 244 244 247 249 247 244 243 245 249 253 256 259 260 262 263 264 265 264 264 266 272 279 283 283 281 279 277 277 279 280 280 279 277 275 273 272
231 233 237 245 252 254 255 254 252 249 247 246 247 249 251 251 251 253 255 256 259 261 260 260 259 256 254 253 254 253 249 247 244 244 250 255 256 254 252 250 247 247 248 250 254 256 257 256 250 244 242 244 248 248 247 246 248 251 254 258 262 264 264 264 264 264 263 264 268 275 284 287 286 283 278 275 277 282 282 280 276 272 273 276 278
236 239 243 248 252 256 258 258 257 253 248 244 243 244 246 248 250 253 256 257 256 255 256 255 253 252 251 250 251 251 251 251 250 250 251 254 255 254 251 249 249 249 251 253 254 256 258 257 253 249 247 247 248 248 249 252 254 256 258 259 260 260 261 262 264 264 264 266 269 276 284 288 284 279 274 274 278 281 279 276 275 274 275 278 281
219 228 233 239 247 253 256 257 256 253 247 239 235 234 236 240 245 248 252 253 251 248 249 250 250 251 251 251 252 252 251 252 254 255 252 249 247 247 244 245 249 251 250 249 247 249 253 255 256 255 254 254 253 250 249 251 254 256 257 259 260 260 261 262 264 265 267 270 273 276 281 283 280 275 272 271 272 273 271 271 274 275 277 280 283
204 208 201 197 209 229 244 251 253 252 244 232 224 223 225 227 232 237 240 242 240 238 239 242 247 252 254 255 256 256 256 256 257 258 253 245 242 243 243 244 249 254 255 252 247 248 250 252 254 256 256 257 259 256 250 250 252 254 256 259 262 264 265 266 267 269 271 275 276 275 275 276 275 275 274 272 270 269 269 271 273 276 280 284 286
229 222 202 184 189 202 216 228 241 253 254 245 233 226 221 219 220 221 223 226 230 234 237 238 240 244 247 251 255 257 258 260 261 262 259 248 242 242 244 246 249 255 259 255 247 246 249 250 252 255 255 256 259 258 254 252 253 254 256 259 263 265 266 268 270 273 276 277 274 268 265 266 268 270 272 273 272 271 272 273 275 278 281 284 285
248 248 243 238 235 236 240 243 245 252 260 262 260 255 247 238 231 226 225 226 227 231 238 243 246 249 250 253 256 259 262 264 265 267 267 261 252 247 246 247 249 252 255 254 249 248 251 253 254 255 255 256 258 258 258 257 258 259 261 263 265 266 268 270 272 275 276 275 269 262 259 260 261 264 269 271 272 271 273 275 277 280 282 284 284
256 259 260 257 256 258 263 266 264 262 265 267 268 269 268 264 258 252 247 244 242 242 243 247 253 258 262 264 266 268 270 272 273 274 274 271 265 256 250 249 250 253 256 258 258 257 256 257 258 260 260 262 262 263 263 264 265 267 269 269 269 269 269 270 271 272 272 270 267 265 264 262 261 264 268 271 272 274 275 277 279 281 282 283 282
266 269 270 268 265 263 261 262 262 264 266 268 270 271 272 271 271 269 266 263 261 259 258 258 259 260 262 265 268 270 272 272 272 273 273 272 270 265 258 254 254 258 261 264 266 267 265 263 263 264 265 266 266 268 270 272 273 274 275 274 274 272 270 270 270 269 268 268 268 267 266 264 264 266 268 271 273 275 277 278 279 280 280 279 279
282 281 280 278 273 268 264 260 257 256 259 263 265 266 267 268 269 270 272 272 271 269 268 267 265 264 263 263 264 267 269 271 271 270 269 269 269 269 267 264 262 264 267 270 272 274 275 274 271 269 269 270 269 269 270 272 273 274 274 275 275 274 272 271 271 270 269 269 269 269 269 269 270 270 272 274 275 276 277 278 278 277 277 278 279
287 288 290 289 286 282 277 270 266 262 261 261 261 261 261 263 266 269 271 272 271 270 269 268 267 266 265 264 264 264 265 266 268 269 269 269 269 269 270 270 270 270 270 272 274 275 277 279 278 277 277 277 276 274 272 272 271 272 273 274 274 275 275 274 273 273 273 273 273 274 274 274 274 275 275 276 276 277 277 276 276 276 277 278 280
283 286 288 290 291 290 286 281 278 275 273 271 271 268 266 265 267 269 271 274 276 275 272 270 268 267 266 265 265 265 265 265 266 267 269 269 270 271 272 272 272 272 272 272 273 274 276 278 277 277 277 277 277 276 275 274 273 273 273 274 274 275 276 276 276 276 277 277 278 278 278 278 279 279 279 278 278 277 276 276 276 278 279 280 281
274 277 279 282 285 285 284 284 282 280 280 279 278 275 273 271 270 270 271 275 278 280 280 279 276 272 269 266 264 263 263 263 263 264 266 268 269 270 271 270 271 272 272 272 272 272 273 274 275 275 276 276 276 276 275 275 275 275 275 275 276 276 277 277 278 278 278 279 280 280 281 281 281 280 279 279 278 277 276 277 278 279 280 281 281
270 271 273 276 276 276 277 279 279 278 278 278 278 277 274 272 271 272 273 274 276 277 280 281 280 278 274 271 268 265 264 263 262 261 262 263 265 266 268 269 270 270 270 270 270 270 270 270 270 271 271 272 273 273 274 274 275 275 276 276 276 276 277 277 277 277 277 278 279 279 279 278 278 277 276 275 275 275 275 277 278 279 280 281 281
271 270 270 271 271 271 271 272 274 275 276 276 275 275 273 270 270 270 271 272 273 275 277 279 278 277 276 274 272 270 269 268 267 265 264 264 263 263 264 266 267 267 268 269 269 269 269 269 269 269 269 269 269 270 271 272 273 274 274 274 274 274 274 275 275 276 276 277 276 275 275 274 273 273 273 273 273 274 275 277 278 279 279 280 281
267 268 269 269 269 269 269 269 269 271 273 273 273 274 274 273 272 271 271 271 270 269 271 273 274 274 274 273 273 272 271 270 270 270 270 269 268 267 266 266 265 266 266 267 268 269 269 270 270 270 270 270 269 269 269 269 270 271 272 272 272 272 272 272 272 273 274 274 273 272 272 271 271 271 272 273 274 275 276 277 278 278 279 280 281
261 263 265 267 268 268 267 267 266 266 267 270 272 273 274 274 273 273 272 271 269 267 266 267 269 270 270 271 272 272 272 272 272 272 272 272 272 272 272 271 270 269 268 267 267 267 267 268 268 268 269 269 270 270 270 269 269 269 269 269 269 270 270 270 269 269 269 269 270 270 271 271 271 271 272 273 274 275 276 276 277 278 279 280 280
259 260 260 261 263 264 264 264 263 263 264 267 269 270 271 271 271 271 271 270 269 269 268 267 268 268 269 270 272 273 273 273 272 271 271 270 271 272 272 272 272 271 270 269 268 267 266 266 265 265 265 265 266 267 268 268 269 268 268 268 269 269 269 269 269 269 269 269 269 269 270 270 271 272 273 274 276 277 277 278 278 279 279 280 280
262 262 261 260 259 260 261 262 262 261 262 264 265 266 268 268 268 267 267 268 268 268 268 268 268 268 268 269 270 271 272 272 272 271 271 270 269 269 269 269 269 269 269 269 269 268 267 267 266 266 265 265 265 265 266 266 267 267 267 268 268 269 270 270 271 271 271 271 271 271 271 271 271 272 273 275 276 277 278 279 280 281 282 283 284
265 266 266 263 259 255 255 256 256 257 259 260 260 261 262 263 263 263 264 265 266 267 268 269 270 270 270 269 269 269 269 270 271 271 271 270 270 269 269 269 269 269 269 269 268 268 268 268 268 269 268 268 268 268 268 268 268 267 267 267 267 268 270 271 273 273 273 273 273 273 272 272 273 274 275 276 276 277 278 279 280 282 283 284 285
267 267 266 263 257 252 250 250 250 251 254 255 256 257 257 257 258 259 261 263 266 268 269 270 271 271 271 270 269 268 267 268 269 270 270 270 270 270 271 271 271 271 271 270 270 269 269 269 269 269 269 270 271 271 270 270 269 269 269 269 269 269 270 272 272 273 274 274 274 274 274 274 275 276 277 278 278 278 279 281 282 283 284 285 287
265 265 264 261 256 251 249 248 247 248 251 253 254 254 254 254 255 257 261 265 268 269 270 270 270 270 270 269 269 269 268 267 268 269 271 272 272 272 272 272 272 273 273 273 272 271 271 271 270 269 268 268 269 270 271 271 271 271 271 271 271 272 272 272 272 273 273 274 274 275 275 276 277 278 279 279 280 281 282 283 284 285 286 287 288
264 263 262 261 258 254 252 250 249 247 248 249 250 251 252 253 255 259 262 265 267 268 268 268 268 269 270 270 270 270 270 269 269 270 271 272 273 273 273 273 273 273 273 273 272 271 271 271 271 271 270 269 268 268 269 269 270 271 272 273 273 273 273 273 274 274 274 275 275 276 277 278 278 279 280 281 282 283 284 285 285 286 287 288 288
263 262 261 261 260 258 255 255 255 252 248 246 247 249 250 251 255 259 262 263 264 264 265 267 268 270 272 272 272 271 270 269 269 270 271 272 272 272 273 273 274 274 274 274 274 273 272 271 270 270 270 270 269 269 269 268 269 269 270 272 273 273 274 274 275 275 275 276 277 277 278 279 280 281 281 282 283 283 284 285 285 286 286 286 285
263 262 261 262 262 260 257 257 257 255 251 249 249 249 249 249 253 258 260 261 262 264 266 268 269 271 272 273 272 272 271 271 270 270 270 270 271 272 273 274 275 275 275 275 275 275 274 273 272 271 270 269 269 269 269 268 268 269 269 270 271 272 273 274 274 274 276 276 277 278 278 279 280 281 282 282 283 283 283 283 284 284 283 283 283
262 262 262 262 263 263 261 258 253 249 247 248 249 251 251 252 254 257 260 261 264 266 268 270 271 272 272 273 273 274 275 274 273 272 271 271 272 273 274 275 275 274 274 275 275 274 273 273 272 272 271 270 270 270 270 270 270 270 270 271 271 271 271 272 273 274 275 276 277 277 278 278 279 280 280 281 281 281 281 282 281 281 281 282 283
263 263 263 262 262 263 263 261 257 254 252 250 249 250 253 254 254 256 259 263 265 266 268 269 270 271 273 275 278 280 281 280 278 276 273 273 273 274 275 276 276 275 275 275 275 274 273 272 272 272 272 272 271 270 270 270 270 271 271 272 272 272 272 273 273 274 275 276 277 277 278 278 278 279 279 279 279 280 279 280 280 280 282 283 285
263 263 262 261 260 260 260 260 259 259 258 253 249 250 253 255 257 260 263 265 266 267 267 267 267 268 272 277 280 283 283 282 281 279 277 276 277 277 277 277 277 277 277 277 276 275 273 273 273 273 273 272 271 270 269 269 270 270 270 270 270 271 272 273 274 274 275 275 276 276 277 277 277 277 277 278 278 277 278 278 279 281 283 285 287
267 264 260 257 255 253 251 251 253 255 255 254 253 256 259 264 269 272 273 271 269 267 265 263 265 269 273 276 278 279 280 280 280 280 280 279 279 278 278 279 279 280 280 280 279 277 275 275 275 274 274 273 271 270 270 270 270 269 269 269 269 270 271 272 273 273 274 274 274 274 275 275 275 275 275 275 276 276 278 279 281 283 285 287 289
Height
3217 3219 3220 3221 3222 3223 3225 3226 3227 3227 3228 3229 3230 3231 3232 3232 3233 3234 3234 3235 3236 3237 3238 3238 3239 3240 3240 3241 3242 3242 3243 3244 3244 3245 3245 3246 3246 3246 3247 3247 3247 3248 3248 3249 3249 3249 3250 3250 3251 3251 3251 3251 3252 3252 3252 3252 3252 3253 3253 3253 3253 3253 3252 3252 3251 3251 3250 3250 3249 3249 3248 3248 3248 3247 3247 3246 3246 3245 3244 3244 3243 3242 3241 3240 3240
3216 3217 3218 3219 3221 3222 3224 3225 3225 3226 3227 3228 3229 3230 3231 3231 3232 3233 3233 3234 3235 3236 3236 3237 3238 3239 3239 3240 3241 3241 3242 3243 3243 3244 3244 3245 3245 3245 3246 3246 3246 3247 3247 3247 3247 3248 3248 3248 3249 3249 3249 3250 3250 3250 3250 3251 3251 3251 3251 3251 3252 3252 3251 3251 3250 3250 3249 3249 3249 3248 3248 3247 3247 3247 3247 3246 3245 3245 3244 3243 3242 3242 3241 3240 3239
3214 3216 3217 3218 3219 3221 3222 3223 3224 3225 3226 3227 3228 3229 3230 3230 3231 3232 3233 3233 3234 3235 3235 3236 3237 3237 3238 3239 3240 3240 3241 3241 3242 3242 3243 3243 3244 3244 3244 3245 3245 3245 3246 3246 3246 3246 3247 3247 3247 3247 3248 3248 3248 3248 3249 3249 3250 3250 3250 3250 3250 3250 3250 3250 3250 3249 3249 3248 3248 3248 3247 3247 3247 3246 3246 3245 3245 3244 3243 3243 3242 3241 3241 3240 3239
3213 3214 3215 3217 3218 3219 3220 3222 3223 3224 3225 3226 3227 3228 3228 3229 3230 3231 3232 3232 3233 3234 3234 3235 3235 3236 3237 3238 3239 3239 3240 3240 3241 3241 3241 3242 3242 3243 3243 3243 3244 3244 3245 3245 3245 3245 3246 3246 3246 3246 3246 3247 3247 3247 3247 3248 3248 3248 3249 3249 3249 3249 3249 3249 3249 3248 3248 3248 3247 3247 3247 3247 3246 3246 3245 3245 3245 3244 3244 3243 3242 3241 3240 3239 3238
3211 3212 3214 3215 3216 3217 3219 3220 3221 3223 3224 3225 3226 3226 3227 3228 3229 3230 3231 3231 3232 3233 3233 3234 3234 3235 3236 3237 3237 3238 3239 3239 3240 3240 3240 3241 3241 3241 3242 3242 3242 3243 3243 3244 3244 3244 3244 3245 3245 3245 3245 3245 3246 3246 3246 3246 3247 3247 3247 3248 3248 3248 3248 3248 3248 3248 3248 3247 3247 3247 3246 3246 3246 3245 3246 3246 3245 3245 3244 3242 3241 3240 3239 3238 3238
3209 3211 3212 3213 3214 3216 3217 3219 3220 3221 3222 3224 3224 3225 3226 3227 3228 3228 3229 3230 3231 3232 3232 3233 3233 3234 3235 3235 3236 3237 3237 3238 3238 3238 3239 3239 3240 3240 3240 3241 3241 3241 3242 3242 3242 3243 3243 3243 3243 3243 3244 3244 3244 3244 3244 3245 3245 3246 3246 3247 3247 3247 3247 3247 3248 3248 3248 3247 3247 3246 3246 3246 3245 3245 3245 3245 3244 3244 3243 3242 3241 3240 3239 3238 3237
3207 3209 3210 3211 3213 3215 3217 3219 3220 3220 3220 3222 3223 3224 3224 3225 3226 3227 3228 3229 3230 3230 3231 3232 3232 3233 3234 3234 3235 3235 3236 3236 3236 3237 3237 3238 3239 3239 3239 3239 3240 3240 3240 3240 3240 3240 3241 3241 3241 3242 3242 3243 3243 3243 3243 3243 3244 3244 3245 3245 3246 3246 3246 3247 3247 3247 3247 3247 3246 3246 3246 3245 3245 3244 3244 3243 3243 3242 3241 3241 3240 3239 3238 3237 3236
3205 3206 3208 3210 3212 3214 3216 3218 3219 3219 3219 3220 3221 3222 3223 3223 3224 3225 3226 3227 3228 3229 3230 3231 3231 3232 3232 3233 3233 3234 3234 3235 3235 3235 3236 3236 3237 3238 3238 3238 3238 3239 3239 3239 3238 3238 3239 3239 3241 3241 3242 3242 3242 3242 3242 3242 3242 3243 3243 3244 3244 3244 3245 3245 3245 3246 3246 3246 3246 3245 3245 3244 3244 3243 3243 3242 3241 3240 3240 3239 3239 3238 3238 3236 3235
3202 3204 3206 3208 3210 3212 3214 3216 3217 3217 3217 3218 3219 3220 3221 3222 3223 3223 3224 3226 3227 3228 3229 3230 3230 3231 3231 3231 3232 3232 3233 3233 3233 3234 3234 3235 3235 3236 3236 3237 3236 3236 3237 3237 3237 3238 3238 3239 3239 3240 3241 3241 3241 3241 3241 3241 3241 3242 3242 3243 3243 3243 3244 3244 3244 3244 3245 3244 3244 3244 3243 3243 3243 3242 3242 3241 3240 3239 3238 3238 3237 3237 3236 3236 3234
3198 3202 3204 3206 3208 3210 3212 3214 3215 3215 3216 3216 3217 3218 3218 3219 3221 3222 3223 3224 3225 3226 3227 3228 3229 3229 3230 3230 3231 3231 3231 3232 3232 3232 3232 3233 3233 3234 3235 3234 3233 3234 3235 3236 3236 3237 3237 3237 3238 3238 3239 3240 3240 3240 3241 3241 3241 3241 3241 3241 3242 3242 3243 3243 3243 3243 3243 3243 3243 3242 3242 3242 3241 3241 3240 3239 3238 3238 3237 3236 3235 3235 3234 3234 3234
3197 3199 3201 3203 3205 3208 3210 3212 3212 3213 3214 3214 3215 3216 3216 3217 3218 3219 3220 3221 3223 3224 3225 3225 3226 3227 3228 3228 3229 3229 3230 3231 3231 3231 3231 3231 3231 3232 3232 3232 3232 3234 3235 3235 3235 3235 3235 3235 3236 3237 3238 3238 3239 3239 3239 3240 3240 3240 3240 3240 3241 3241 3241 3242 3242 3242 3242 3242 3241 3241 3241 3240 3240 3239 3238 3238 3237 3236 3235 3234 3233 3233 3233 3232 3232
3198 3199 3200 3201 3202 3205 3207 3209 3209 3210 3211 3212 3213 3213 3214 3215 3215 3216 3217 3218 3219 3221 3222 3223 3224 3225 3226 3226 3227 3227 3228 3229 3229 3229 3229 3229 3229 3229 3229 3230 3231 3232 3233 3233 3234 3235 3234 3233 3234 3235 3236 3236 3237 3237 3238 3238 3238 3238 3239 3239 3239 3240 3240 3240 3240 3240 3240 3240 3240 3240 3239 3239 3238 3238 3237 3236 3235 3234 3233 3232 3231 3231 3231 3230 3229
3197 3199 3200 3202 3202 3202 3202 3203 3204 3205 3206 3207 3208 3209 3211 3212 3213 3214 3214 3215 3216 3218 3219 3221 3222 3223 3223 3224 3224 3225 3225 3226 3227 3227 3227 3227 3227 3227 3228 3229 3229 3230 3231 3232 3232 3233 3233 3232 3232 3233 3234 3234 3235 3235 3236 3236 3236 3237 3237 3237 3238 3238 3238 3238 3238 3238 3238 3239 3238 3238 3237 3237 3237 3236 3235 3234 3233 3232 3231 3230 3230 3229 3229 3228 3226
3194 3195 3197 3200 3201 3201 3200 3199 3200 3202 3202 3202 3203 3205 3207 3208 3210 3211 3212 3213 3214 3215 3216 3217 3218 3219 3220 3221 3222 3222 3223 3223 3224 3225 3225 3225 3225 3225 3226 3227 3227 3227 3228 3229 3230 3230 3231 3231 3231 3231 3232 3232 3233 3233 3234 3234 3234 3235 3235 3235 3235 3236 3236 3236 3236 3236 3237 3237 3236 3236 3235 3235 3234 3234 3233 3232 3231 3230 3229 3228 3228 3227 3227 3225 3224
3189 3192 3194 3196 3199 3200 3200 3199 3200 3201 3201 3201 3201 3202 3203 3205 3207 3208 3209 3210 3211 3212 3213 3214 3215 3216 3217 3218 3219 3219 3220 3221 3221 3222 3222 3222 3223 3223 3224 3224 3225 3225 3225 3226 3227 3228 3228 3229 3229 3230 3230 3231 3231 3231 3232 3232 3232 3233 3233 3233 3233 3233 3233 3233 3234 3234 3235 3234 3234 3233 3233 3232 3232 3231 3230 3229 3228 3227 3227 3226 3226 3225 3224 3223 3221
3186 3189 3191 3193 3195 3196 3197 3197 3197 3197 3197 3198 3198 3198 3200 3202 3204 3205 3206 3207 3208 3209 3210 3210 3211 3212 3213 3214 3215 3216 3216 3217 3218 3218 3219 3219 3221 3221 3221 3222 3223 3223 3223 3224 3224 3225 3225 3226 3227 3227 3228 3229 3229 3229 3230 3230 3230 3230 3230 3230 3230 3231 3231 3231 3231 3232 3232 3232 3231 3231 3230 3229 3229 3228 3228 3227 3226 3225 3225 3224 3224 3223 3222 3220 3219
3183 3185 3187 3190 3191 3192 3193 3193 3193 3194 3195 3196 3196 3197 3198 3200 3200 3202 3203 3203 3204 3205 3206 3206 3207 3208 3209 3210 3211 3211 3212 3213 3214 3214 3215 3216 3217 3218 3219 3219 3220 3220 3221 3221 3222 3222 3223 3223 3224 3224 3225 3226 3226 3226 3227 3227 3227 3228 3228 3228 3228 3228 3228 3229 3229 3229 3229 3229 3229 3228 3228 3227 3226 3226 3225 3224 3224 3223 3222 3222 3221 3220 3219 3218 3217
3181 3182 3184 3187 3188 3190 3190 3190 3191 3193 3195 3195 3195 3196 3197 3197 3198 3199 3200 3200 3200 3200 3200 3200 3203 3205 3206 3206 3206 3207 3208 3209 3210 3210 3211 3212 3213 3215 3215 3216 3217 3217 3218 3219 3219 3220 3220 3221 3221 3222 3222 3222 3223 3223 3223 3224 3224 3225 3225 3225 3225 3225 3225 3225 3226 3226 3226 3226 3226 3225 3225 3224 3223 3223 3222 3222 3221 3220 3220 3219 3218 3217 3216 3216 3215
3179 3180 3182 3184 3186 3188 3190 3189 3190 3192 3192 3192 3192 3193 3193 3194 3195 3196 3197 3196 3195 3194 3194 3196 3200 3203 3203 3202 3202 3202 3203 3204 3205 3206 3207 3207 3208 3210 3211 3212 3213 3214 3215 3216 3216 3217 3217 3218 3218 3219 3219 3219 3220 3220 3221 3221 3221 3222 3222 3222 3222 3222 3222 3222 3222 3223 3223 3223 3222 3222 3221 3220 3220 3220 3220 3219 3219 3218 3217 3216 3216 3215 3214 3213 3213
3179 3179 3181 3183 3185 3187 3188 3188 3187 3188 3188 3189 3189 3190 3190 3191 3192 3192 3193 3192 3190 3190 3191 3194 3198 3200 3199 3197 3197 3197 3198 3200 3201 3202 3202 3203 3203 3205 3206 3208 3208 3210 3211 3212 3213 3213 3214 3214 3215 3215 3216 3217 3217 3218 3218 3218 3218 3218 3219 3219 3219 3219 3219 3219 3219 3219 3219 3219 3219 3218 3218 3217 3217 3217 3217 3216 3216 3215 3214 3214 3213 3212 3211 3211 3210
3178 3178 3180 3181 3182 3183 3184 3184 3183 3184 3185 3186 3186 3187 3187 3188 3188 3189 3189 3188 3187 3187 3189 3191 3193 3195 3194 3193 3193 3193 3194 3196 3198 3198 3198 3198 3199 3200 3201 3202 3203 3204 3206 3207 3208 3209 3210 3211 3211 3212 3213 3214 3214 3215 3215 3215 3215 3215 3215 3216 3216 3216 3215 3215 3215 3215 3216 3216 3215 3215 3215 3215 3215 3214 3213 3213 3213 3212 3211 3211 3210 3210 3209 3208 3207
3176 3177 3177 3178 3179 3180 3180 3180 3180 3181 3182 3182 3183 3184 3184 3185 3185 3186 3186 3186 3186 3186 3186 3186 3187 3189 3190 3190 3189 3190 3191 3192 3193 3194 3194 3193 3194 3195 3195 3196 3197 3198 3199 3201 3203 3204 3206 3207 3209 3210 3210 3211 3211 3211 3211 3212 3212 3212 3212 3212 3212 3212 3212 3212 3212 3212 3212 3212 3212 3212 3212 3212 3212 3211 3210 3210 3209 3209 3209 3208 3207 3207 3206 3205 3204
3174 3174 3175 3176 3177 3178 3178 3179 3179 3179 3179 3180 3180 3181 3181 3182 3183 3184 3184 3184 3185 3185 3185 3184 3184 3185 3186 3186 3186 3187 3188 3188 3189 3190 3190 3190 3191 3191 3191 3191 3192 3192 3194 3196 3198 3200 3201 3203 3205 3206 3207 3207 3207 3208 3208 3208 3208 3209 3209 3209 3209 3209 3209 3209 3209 3209 3209 3209 3209 3209 3209 3209 3208 3208 3207 3207 3206 3206 3206 3206 3205 3204 3203 3201 3200
3172 3172 3174 3175 3176 3177 3177 3178 3178 3178 3177 3177 3178 3178 3179 3180 3181 3182 3182 3183 3183 3183 3183 3183 3183 3183 3183 3183 3184 3185 3185 3185 3186 3187 3187 3187 3188 3188 3188 3188 3187 3188 3189 3193 3195 3196 3197 3198 3200 3201 3202 3202 3202 3203 3204 3204 3205 3205 3205 3205 3206 3206 3206 3206 3206 3206 3206 3206 3206 3206 3206 3205 3205 3204 3204 3203 3203 3203 3203 3202 3202 3201 3200 3199 3197
3171 3172 3173 3174 3175 3176 3177 3177 3177 3177 3176 3176 3176 3177 3177 3178 3179 3179 3180 3180 3181 3181 3181 3181 3181 3181 3181 3181 3182 3182 3183 3183 3183 3184 3184 3185 3185 3185 3185 3184 3184 3184 3187 3190 3192 3192 3192 3193 3194 3195 3196 3197 3197 3198 3199 3200 3201 3201 3201 3201 3201 3202 3202 3203 3203 3203 3203 3203 3203 3203 3203 3203 3202 3202 3201 3200 3200 3200 3200 3199 3199 3199 3198 3197 3196
3170 3171 3173 3173 3174 3175 3175 3175 3176 3176 3175 3175 3175 3175 3176 3176 3177 3177 3178 3178 3178 3178 3178 3178 3178 3178 3179 3179 3180 3180 3181 3181 3181 3181 3182 3182 3182 3182 3182 3181 3181 3182 3184 3185 3188 3189 3189 3189 3190 3191 3192 3191 3191 3192 3194 3195 3195 3196 3196 3197 3197 3198 3199 3199 3200 3200 3200 3200 3199 3199 3200 3199 3199 3198 3198 3198 3197 3197 3197 3197 3197 3196 3196 3195 3194
3170 3171 3172 3173 3174 3174 3174 3174 3174 3174 3175 3175 3175 3174 3174 3175 3175 3175 3176 3176 3176 3176 3176 3176 3176 3176 3177 3177 3177 3178 3178 3178 3178 3178 3179 3179 3179 3180 3180 3179 3180 3180 3180 3181 3184 3186 3186 3186 3186 3187 3188 3188 3188 3189 3189 3190 3190 3191 3192 3193 3194 3194 3195 3195 3196 3196 3196 3196 3195 3195 3196 3196 3195 3194 3194 3194 3194 3194 3194 3194 3194 3193 3193 3192 3191
3169 3170 3171 3172 3173 3173 3173 3174 3174 3174 3174 3174 3174 3174 3173 3173 3173 3174 3174 3174 3174 3174 3174 3174 3174 3175 3175 3175 3175 3175 3175 3176 3176 3176 3176 3176 3177 3177 3177 3177 3178 3178 3178 3179 3180 3182 3182 3182 3182 3183 3184 3185 3185 3186 3186 3186 3187 3187 3188 3189 3190 3191 3191 3191 3191 3192 3191 3191 3191 3191 3192 3192 3191 3191 3191 3191 3191 3191 3191 3191 3190 3190 3190 3189 3188
3168 3169 3169 3170 3171 3171 3172 3172 3173 3173 3173 3173 3173 3173 3172 3172 3172 3172 3172 3173 3173 3173 3173 3173 3173 3173 3173 3173 3173 3173 3174 3174 3174 3174 3173 3174 3174 3174 3174 3175 3175 3175 3176 3176 3177 3179 3179 3179 3180 3181 3181 3182 3182 3183 3183 3183 3184 3184 3185 3185 3186 3186 3187 3187 3188 3187 3187 3187 3186 3187 3187 3188 3187 3187 3187 3187 3187 3187 3187 3187 3186 3186 3186 3185 3184
3167 3168 3168 3169 3169 3169 3170 3170 3171 3171 3171 3171 3171 3171 3171 3171 3170 3170 3171 3171 3171 3172 3172 3172 3172 3172 3172 3172 3172 3172 3172 3172 3172 3172 3172 3172 3171 3172 3172 3172 3172 3173 3173 3174 3175 3176 3177 3177 3178 3178 3179 3179 3179 3179 3179 3180 3180 3180 3181 3182 3182 3182 3183 3183 3183 3184 3183 3183 3183 3183 3183 3183 3184 3184 3183 3183 3183 3183 3183 3183 3182 3182 3181 3180 3179
3166 3166 3167 3168 3168 3168 3168 3169 3169 3169 3169 3169 3169 3169 3169 3169 3169 3169 3169 3169 3169 3170 3170 3170 3171 3171 3171 3171 3171 3171 3171 3171 3171 3171 3171 3170 3170 3170 3170 3170 3170 3170 3171 3172 3173 3173 3174 3175 3175 3175 3175 3176 3176 3176 3176 3176 3176 3177 3178 3178 3179 3179 3179 3179 3180 3180 3180 3180 3180 3180 3180 3180 3180 3180 3180 3179 3179 3179 3179 3178 3178 3177 3176 3176 3175
3165 3165 3165 3166 3167 3167 3167 3167 3167 3167 3167 3167 3168 3168 3168 3167 3167 3167 3167 3167 3167 3168 3168 3168 3169 3169 3169 3170 3170 3170 3170 3170 3169 3169 3169 3169 3169 3169 3169 3169 3169 3169 3170 3170 3170 3170 3171 3172 3172 3172 3172 3173 3173 3173 3173 3173 3174 3174 3175 3176 3176 3176 3176 3176 3177 3177 3177 3176 3176 3176 3176 3176 3176 3176 3176 3175 3175 3175 3175 3174 3173 3173 3172 3171 3171
3162 3162 3163 3163 3164 3164 3165 3165 3165 3165 3165 3166 3166 3166 3166 3166 3166 3166 3166 3166 3166 3166 3166 3166 3166 3167 3167 3167 3168 3168 3168 3168 3168 3167 3167 3167 3168 3168 3168 3168 3168 3169 3169 3169 3169 3169 3169 3169 3170 3170 3170 3170 3170 3171 3171 3171 3171 3172 3172 3173 3173 3173 3173 3173 3173 3173 3173 3173 3172 3172 3172 3172 3172 3172 3172 3172 3171 3171 3170 3170 3169 3169 3168 3167 3167
3160 3160 3160 3161 3161 3161 3161 3162 3162 3163 3163 3163 3163 3163 3163 3163 3163 3164 3164 3164 3164 3164 3164 3164 3164 3164 3165 3165 3165 3165 3166 3166 3166 3165 3165 3165 3166 3166 3166 3166 3167 3167 3167 3167 3167 3167 3167 3167 3167 3168 3168 3168 3168 3168 3168 3168 3169 3169 3169 3170 3170 3170 3170 3170 3170 3169 3169 3169 3169 3169 3169 3168 3168 3168 3168 3167 3167 3166 3165 3165 3165 3164 3164 3163 3162
3158 3158 3158 3159 3159 3159 3158 3158 3159 3159 3159 3160 3160 3160 3160 3160 3160 3160 3161 3161 3161 3162 3162 3162 3162 3162 3163 3163 3163 3163 3163 3163 3163 3163 3163 3163 3163 3163 3163 3164 3164 3165 3165 3165 3165 3165 3164 3164 3165 3165 3165 3165 3165 3165 3165 3165 3166 3166 3166 3166 3167 3167 3167 3166 3166 3166 3166 3165 3165 3165 3165 3164 3164 3163 3162 3162 3161 3161 3160 3160 3160 3160 3159 3158 3158
3155 3155 3156 3156 3156 3156 3156 3156 3156 3156 3156 3156 3157 3157 3157 3157 3157 3157 3158 3158 3158 3159 3160 3160 3160 3160 3160 3160 3160 3160 3160 3160 3160 3160 3160 3160 3160 3160 3160 3161 3161 3162 3162 3162 3162 3162 3161 3161 3161 3161 3161 3162 3162 3162 3162 3162 3162 3162 3162 3162 3163 3163 3163 3162 3162 3162 3162 3162 3161 3161 3160 3160 3159 3158 3158 3157 3156 3156 3155 3155 3155 3155 3154 3154 3153
3151 3152 3153 3153 3152 3153 3153 3153 3153 3153 3153 3153 3154 3154 3154 3154 3154 3155 3155 3155 3156 3156 3157 3157 3157 3157 3157 3157 3157 3157 3157 3157 3157 3157 3157 3157 3157 3157 3157 3157 3158 3158 3158 3158 3158 3158 3158 3158 3158 3158 3158 3158 3158 3158 3158 3158 3158 3158 3158 3158 3158 3158 3158 3158 3157 3157 3157 3157 3157 3156 3155 3155 3154 3153 3152 3152 3151 3151 3151 3151 3150 3150 3149 3149 3148
3148 3148 3149 3149 3149 3149 3150 3150 3150 3150 3150 3151 3151 3151 3151 3151 3151 3152 3152 3153 3153 3154 3154 3154 3154 3154 3154 3154 3154 3154 3154 3154 3154 3154 3154 3154 3154 3154 3154 3154 3154 3154 3154 3154 3154 3154 3154 3154 3153 3153 3154 3154 3154 3154 3154 3154 3154 3154 3153 3153 3153 3153 3153 3153 3153 3153 3152 3152 3151 3151 3150 3149 3149 3148 3147 3147 3147 3147 3146 3146 3145 3145 3144 3143 3143
3144 3145 3145 3145 3146 3146 3147 3147 3147 3147 3148 3148 3148 3148 3148 3148 3148 3148 3149 3149 3150 3150 3150 3151 3151 3151 3151 3151 3150 3150 3150 3151 3151 3151 3151 3150 3150 3150 3150 3150 3150 3150 3150 3150 3150 3150 3150 3150 3150 3149 3149 3149 3149 3149 3149 3150 3150 3149 3149 3149 3148 3148 3148 3148 3148 3148 3147 3147 3146 3145 3145 3144 3144 3143 3143 3142 3142 3142 3142 3141 3140 3140 3139 3139 3138
3140 3141 3141 3142 3142 3142 3143 3143 3144 3144 3145 3145 3145 3145 3145 3145 3145 3145 3144 3144 3145 3145 3146 3146 3147 3147 3148 3148 3148 3147 3147 3148 3147 3147 3147 3147 3147 3147 3146 3146 3146 3146 3146 3146 3146 3146 3146 3146 3145 3145 3145 3145 3145 3145 3145 3145 3145 3144 3144 3144 3143 3142 3142 3142 3142 3142 3142 3142 3141 3140 3140 3139 3139 3138 3138 3138 3137 3137 3136 3136 3135 3135 3134 3133 3132
3137 3137 3138 3138 3138 3139 3139 3140 3140 3140 3141 3141 3141 3141 3141 3141 3141 3141 3141 3140 3141 3141 3141 3142 3142 3143 3144 3144 3144 3144 3144 3143 3143 3143 3143 3143 3143 3143 3143 3143 3142 3142 3142 3142 3142 3142 3141 3141 3141 3141 3141 3141 3141 3140 3140 3140 3140 3140 3139 3139 3138 3138 3137 3137 3137 3137 3137 3137 3136 3136 3135 3134 3134 3134 3133 3133 3133 3132 3131 3130 3130 3129 3128 3127 3126
3132 3133 3133 3134 3134 3135 3135 3136 3136 3136 3137 3137 3137 3138 3138 3137 3137 3137 3137 3137 3137 3138 3138 3138 3139 3139 3139 3140 3140 3140 3139 3139 3138 3138 3139 3139 3139 3139 3139 3139 3138 3138 3138 3138 3138 3138 3137 3137 3137 3136 3136 3136 3136 3136 3136 3135 3135 3135 3135 3134 3134 3133 3133 3133 3132 3132 3132 3131 3131 3131 3130 3129 3129 3129 3129 3129 3128 3127 3126 3125 3124 3124 3123 3122 3121
3127 3128 3129 3129 3129 3129 3130 3131 3131 3132 3132 3133 3133 3134 3134 3133 3133 3133 3133 3134 3134 3134 3134 3135 3135 3135 3135 3135 3136 3136 3135 3135 3134 3133 3133 3134 3134 3134 3134 3134 3134 3134 3134 3134 3134 3134 3133 3133 3132 3132 3132 3132 3131 3131 3130 3130 3130 3130 3130 3129 3129 3129 3128 3128 3128 3127 3127 3126 3126 3125 3125 3124 3124 3124 3124 3123 3123 3122 3121 3120 3119 3118 3117 3116 3115
3122 3123 3124 3124 3124 3124 3125 3125 3126 3127 3128 3129 3129 3130 3129 3129 3129 3130 3130 3131 3131 3131 3131 3131 3131 3131 3131 3131 3131 3131 3131 3131 3130 3129 3128 3129 3129 3130 3130 3130 3129 3129 3129 3129 3129 3129 3128 3128 3127 3127 3127 3127 3126 3126 3125 3125 3124 3125 3125 3124 3124 3124 3123 3123 3123 3122 3122 3121 3121 3120 3120 3119 3119 3119 3118 3118 3117 3116 3115 3115 3114 3112 3111 3110 3109
3118 3118 3119 3119 3119 3120 3120 3120 3121 3122 3124 3125 3125 3124 3125 3125 3125 3126 3127 3127 3127 3127 3127 3127 3127 3127 3127 3127 3127 3127 3127 3126 3126 3125 3124 3124 3124 3125 3125 3125 3124 3124 3124 3123 3123 3123 3123 3122 3122 3121 3121 3121 3121 3121 3120 3119 3119 3119 3119 3119 3119 3118 3118 3117 3117 3116 3116 3116 3115 3115 3114 3114 3113 3113 3112 3112 3111 3110 3109 3108 3107 3106 3106 3105 3103
3113 3114 3114 3114 3115 3115 3115 3116 3116 3117 3118 3119 3119 3119 3120 3121 3122 3122 3123 3123 3123 3123 3123 3123 3123 3122 3122 3122 3122 3122 3122 3122 3122 3121 3120 3120 3120 3120 3120 3120 3119 3119 3118 3118 3117 3117 3117 3117 3117 3116 3116 3116 3115 3115 3114 3114 3114 3113 3113 3113 3113 3113 3112 3112 3111 3111 3110 3110 3109 3109 3108 3108 3107 3107 3106 3106 3105 3104 3103 3102 3101 3100 3100 3099 3098
3108 3109 3109 3109 3110 3110 3110 3111 3111 3112 3113 3113 3114 3114 3115 3116 3117 3118 3118 3118 3118 3118 3118 3118 3118 3118 3117 3117 3117 3117 3118 3118 3117 3117 3116 3115 3114 3114 3115 3115 3115 3114 3114 3113 3112 3112 3111 3111 3111 3111 3111 3110 3110 3109 3108 3108 3108 3108 3108 3108 3108 3107 3107 3106 3105 3105 3105 3104 3104 3104 3103 3102 3102 3101 3100 3099 3099 3098 3097 3096 3096 3095 3094 3093 3092
3103 3104 3104 3104 3105 3106 3105 3105 3106 3106 3107 3107 3108 3109 3110 3111 3111 3112 3113 3113 3113 3113 3113 3113 3112 3112 3111 3111 3111 3112 3113 3113 3113 3112 3111 3110 3109 3109 3109 3109 3109 3109 3108 3108 3107 3107 3106 3105 3105 3105 3105 3105 3104 3104 3103 3102 3102 3102 3102 3102 3102 3101 3101 3100 3100 3099 3099 3099 3098 3098 3097 3097 3096 3095 3095 3094 3093 3092 3091 3091 3090 3089 3089 3088 3087
3098 3098 3099 3099 3100 3101 3101 3101 3101 3102 3102 3102 3103 3105 3105 3105 3106 3107 3108 3108 3108 3108 3108 3108 3108 3107 3107 3106 3106 3107 3107 3107 3107 3107 3107 3105 3104 3104 3103 3103 3103 3103 3103 3103 3102 3101 3100 3099 3099 3099 3099 3099 3099 3098 3097 3097 3096 3096 3096 3096 3095 3095 3095 3094 3094 3094 3093 3093 3092 3092 3091 3091 3090 3090 3089 3088 3087 3087 3086 3085 3085 3084 3083 3082 3081
3093 3094 3094 3094 3095 3096 3097 3097 3097 3097 3098 3098 3099 3100 3101 3101 3102 3103 3103 3104 3104 3104 3104 3104 3104 3103 3103 3103 3102 3102 3101 3101 3101 3101 3101 3101 3100 3099 3098 3097 3097 3097 3097 3098 3098 3096 3095 3094 3093 3093 3093 3093 3093 3092 3092 3091 3091 3091 3090 3090 3090 3089 3089 3089 3088 3088 3088 3087 3087 3086 3086 3085 3084 3084 3083 3083 3082 3081 3081 3080 3080 3079 3078 3077 3076
3088 3088 3089 3089 3090 3091 3092 3092 3093 3093 3093 3094 3095 3095 3096 3097 3097 3098 3098 3099 3099 3099 3099 3099 3099 3100 3100 3100 3099 3098 3097 3096 3096 3096 3096 3096 3095 3094 3093 3092 3092 3091 3092 3092 3092 3091 3090 3089 3088 3088 3088 3087 3087 3087 3086 3086 3085 3085 3085 3085 3085 3084 3084 3083 3083 3082 3082 3082 3081 3081 3080 3080 3079 3078 3078 3077 3077 3076 3076 3075 3074 3074 3073 3072 3071